This demonstration page uses our WeatherBlox Daily Observations layout. Learn more.

Left ArrowRight Arrow

44.8408, -93.29828

Hourly Observations for May 30, 2015

Temp ( °F °C ) Dew Point ( °F °C ) Humidity (%) Winds ( mph kmh ) Pressure ( in mb ) Visibility ( mi km ) Precip ( " mm )
12:20 am 00:20 Cloudy 54 12 50 10 88 88 N 14 22 30.06 1018 10 16 0.00 0.00
12:44 am 00:44 Cloudy 54 12 50 10 88 88 N 14 22 30.06 1018 10 16 0.00 0.00
12:53 am 00:53 Mostly Cloudy 54 12.2 50 10 87 87 N 14 22 30.06 1018 10 16 0.00 0.00
1:53 am 01:53 Mostly Cloudy 53 11.7 45 7.2 74 74 N 23 37 30.07 1018 10 16 0.00 0.00
2:53 am 02:53 Mostly Cloudy 51 10.6 42 5.6 71 71 N 16 26 30.10 1019 10 16 0.00 0.00
3:53 am 03:53 Mostly Cloudy 50 10 41 5 71 71 N 9 15 30.12 1020 10 16 0.00 0.00
4:53 am 04:53 Partly Cloudy 48 8.9 40 4.4 74 74 N 15 24 30.14 1021 10 16 0.00 0.00
5:53 am 05:53 Partly Cloudy 47 8.3 39 3.9 74 74 N 13 20 30.16 1021 10 16 0.00 0.00
6:53 am 06:53 Mostly Cloudy 47 8.3 39 3.9 74 74 N 13 20 30.19 1022 10 16 0.00 0.00
7:53 am 07:53 Mostly Cloudy 49 9.4 39 3.9 69 69 N 16 26 30.20 1023 10 16 0.00 0.00
8:53 am 08:53 Mostly Cloudy 50 10 39 3.9 66 66 N 16 26 30.22 1023 10 16 0.00 0.00
9:53 am 09:53 Mostly Cloudy 52 11.1 39 3.9 61 61 N 16 26 30.22 1024 10 16 0.00 0.00
10:53 am 10:53 Mostly Cloudy 56 13.3 41 5 57 57 N 10 17 30.23 1024 10 16 0.00 0.00
11:53 am 11:53 Mostly Cloudy 58 14.4 42 5.6 56 56 N 13 20 30.24 1024 10 16 0.00 0.00
12:53 pm 12:53 Mostly Cloudy 59 15 41 5 51 51 NE 14 22 30.24 1024 10 16 0.00 0.00
1:53 pm 13:53 Mostly Cloudy 61 16.1 43 6.1 52 52 NE 8 13 30.24 1024 10 16 0.00 0.00
2:53 pm 14:53 Mostly Cloudy 61 16.1 41 5 48 48 NNE 12 19 30.24 1024 10 16 0.00 0.00
3:53 pm 15:53 Partly Cloudy 62 16.7 41 5 46 46 NNE 15 24 30.24 1024 10 16 0.00 0.00
4:53 pm 16:53 Partly Cloudy 63 17.2 40 4.4 43 43 N 13 20 30.23 1024 10 16 0.00 0.00
5:53 pm 17:53 Partly Cloudy 63 17.2 41 5 45 45 NE 12 19 30.23 1024 10 16 0.00 0.00
6:53 pm 18:53 Partly Cloudy 62 16.7 39 3.9 43 43 NE 13 20 30.23 1024 10 16 0.00 0.00
7:53 pm 19:53 Partly Cloudy 61 16.1 37 2.8 41 41 NE 10 17 30.24 1024 10 16 0.00 0.00
8:53 pm 20:53 Mostly Clear 58 14.4 37 2.8 46 46 NE 8 13 30.24 1024 10 16 0.00 0.00
9:53 pm 21:53 Clear 56 13.3 39 3.9 53 53 E 9 15 30.26 1025 10 16 0.00 0.00
10:53 pm 22:53 Clear 54 12.2 36 2.2 51 51 ENE 10 17 30.28 1025 10 16 0.00 0.00
11:53 pm 23:53 Clear 52 11.1 33 0.6 49 49 ENE 14 22 30.29 1026 10 16 0.00 0.00

Powered by AerisWeather